This is the latest recevied weather packets stored in our database for station/object KF6RAL-6. If no packets are shown the sender has not sent any weather packets the latest 10 day(s).
| Time | Temp. | Humidity | Pressure | Rain* | Wind** | Luminosity | Snow |
|---|---|---|---|---|---|---|---|
| 1787915786 | 24.44° C | 51% | 1016.2 hPa | 0 mm | - | - | - |
| 1787915365 | 24.44° C | 51% | 1016.3 hPa | 0 mm | - | - | - |
| 1787914947 | 25° C | 49% | 1016.1 hPa | 0 mm | - | - | - |
| 1787914533 | 25° C | 50% | 1016.4 hPa | 0 mm | - | - | - |
| 1787914102 | 25° C | 51% | 1016.4 hPa | 0 mm | - | - | - |
| 1787913682 | 25° C | 50% | 1016.3 hPa | 0 mm | - | - | - |
| 1787913260 | 24.44° C | 53% | 1016.5 hPa | 0 mm | - | - | - |
| 1787912839 | 25° C | 52% | 1016.5 hPa | 0 mm | - | - | - |
| 1787912418 | 25° C | 50% | 1016.3 hPa | 0 mm | - | - | - |
| 1787911997 | 24.44° C | 48% | 1016.2 hPa | 0 mm | - | - | - |
| 1787911576 | 24.44° C | 53% | 1016.4 hPa | 0 mm | - | - | - |
| 1787911156 | 23.89° C | 55% | 1016.8 hPa | 0 mm | - | - | - |
| 1787910734 | 23.33° C | 55% | 1016.3 hPa | 0 mm | - | - | - |
| 1787910313 | 23.89° C | 56% | 1017.1 hPa | 0 mm | - | - | - |
| 1787909894 | 23.89° C | 56% | 1017.2 hPa | 0 mm | - | - | - |
| 1787909472 | 23.89° C | 56% | 1017 hPa | 0 mm | - | - | - |
| 1787909050 | 23.89° C | 54% | 1016.9 hPa | 0 mm | - | - | - |
| 1787908629 | 24.44° C | 52% | 1017 hPa | 0 mm | - | - | - |
| 1787908210 | 24.44° C | 50% | 1017.2 hPa | 0 mm | - | - | - |
| 1787907787 | 24.44° C | 50% | 1016.3 hPa | 0 mm | - | - | - |
| 1787907366 | 23.89° C | 52% | 1017 hPa | 0 mm | - | - | - |
| 1787906945 | 23.89° C | 50% | 1016.8 hPa | 0 mm | - | - | - |
| 1787906524 | 23.89° C | 50% | 1016.9 hPa | 0 mm | - | - | - |
| 1787906103 | 23.89° C | 51% | 1016.8 hPa | 0 mm | - | - | - |
| 1787905682 | 24.44° C | 51% | 1016.8 hPa | 0 mm | - | - | - |
* Rain latest hour (hover to see other rain measurements)
** Current wind speed in m/s (hover to see current wind gust speed)